Newberry, MI

1:49 AM EDT on July 22, 2017 (GMT -0400)
Luce County

Weather History for KERY - January, 2013

Change the Weather History Date:

Thursday, January 24, 2013

  Actual Average Record
Temperature  
Mean Temperature -3 °F -  
Max Temperature 10 °F 24 °F 41 °F (1916)
Min Temperature -16 °F 8 °F -16 °F (2013)
Degree Days  
Heating Degree Days 68    
Moisture  
Dew Point -3 °F    
Average Humidity 82    
Maximum Humidity 92    
Minimum Humidity 67    
Precipitation  
Precipitation 0.00 in - - ()
Sea Level Pressure  
Sea Level Pressure 30.47 in    
Wind  
Wind Speed 4 mph (WNW)    
Max Wind Speed 8 mph    
Max Gust Speed -    
Visibility 9 miles    
Events Snow    
Averages and records for this station are not official NWS values.
T = Trace of Precipitation, MM = Missing Value Source: NWS Daily Summary

Daily Weather History Graph

Daily Weather History Graph

Search for Another Location

Airport or City:

Trip Planner

Search our weather history database for the weather conditions in past years. The results will help you decide how hot, cold, wet, or windy it might be!

Date:

Astronomy

Jan. 24, 2013 Rise Set
Actual Time 8:13 AM EST 5:35 PM EST
Civil Twilight 7:40 AM EST 6:07 PM EST
Nautical Twilight 7:04 AM EST 6:44 PM EST
Astronomical Twilight 6:28 AM EST 7:20 PM EST
Moon 3:34 PM EST (1/24) 6:12 AM EST (1/24)
Length of Visible Light 10h 27m
Length of Day
9h 21m
Waxing Gibbous, 94% of the Moon is Illuminated
Jan 24
Waxing Gibbous
Jan 26
Full
Feb 3
Last Quarter
Feb 10
New
Feb 17
First Quarter

Hourly Weather History & Observations

Time (EST) Temp. Windchill Dew Point Humidity Pressure Visibility Wind Dir Wind Speed Gust Speed Precip Events Conditions
12:15 AM 6.8 °F -5.9 °F 3.2 °F 85% 30.26 in 10.0 mi North 8.1 mph - N/A   Scattered Clouds
12:34 AM 5.0 °F -8.1 °F 1.4 °F 85% 30.28 in 10.0 mi North 8.1 mph - N/A   Scattered Clouds
12:55 AM 5.0 °F -5.6 °F 1.4 °F 85% 30.30 in 7.0 mi North 5.8 mph - N/A   Overcast
1:15 AM 3.2 °F -9.1 °F -0.4 °F 85% 30.31 in 3.0 mi North 6.9 mph - N/A Snow Light Snow
1:34 AM 3.2 °F -6.2 °F -0.4 °F 85% 30.32 in 5.0 mi North 4.6 mph - N/A   Overcast
1:55 AM 3.2 °F -6.2 °F -0.4 °F 85% 30.34 in 4.0 mi NNE 4.6 mph - N/A Snow Light Snow
2:15 AM 1.4 °F -9.9 °F -2.2 °F 85% 30.35 in 10.0 mi NNE 5.8 mph - N/A   Overcast
2:34 AM 1.4 °F -9.9 °F -2.2 °F 85% 30.37 in 10.0 mi North 5.8 mph - N/A   Overcast
2:55 AM -0.4 °F -12.0 °F -4.0 °F 85% 30.38 in 10.0 mi NNE 5.8 mph - N/A   Overcast
3:14 AM -0.4 °F -10.4 °F -5.8 °F 78% 30.39 in 10.0 mi North 4.6 mph - N/A   Overcast
3:34 AM -2.2 °F -12.5 °F -5.8 °F 85% 30.40 in 10.0 mi NNE 4.6 mph - N/A   Overcast
3:55 AM -2.2 °F -12.5 °F -5.8 °F 85% 30.42 in 10.0 mi North 4.6 mph - N/A   Overcast
4:14 AM -2.2 °F -15.6 °F -5.8 °F 85% 30.43 in 7.0 mi NNE 6.9 mph - N/A   Overcast
4:34 AM -2.2 °F -12.5 °F -7.6 °F 78% 30.44 in 10.0 mi North 4.6 mph - N/A   Overcast
4:55 AM -4.0 °F -12.4 °F -7.6 °F 85% 30.45 in 10.0 mi NNE 3.5 mph - N/A   Overcast
5:14 AM -4.0 °F -14.6 °F -7.6 °F 85% 30.46 in 10.0 mi North 4.6 mph - N/A   Overcast
5:35 AM -4.0 °F - -7.6 °F 85% 30.47 in 10.0 mi Calm Calm - N/A   Overcast
5:55 AM -5.8 °F -14.5 °F -9.4 °F 84% 30.48 in 10.0 mi NNE 3.5 mph - N/A   Overcast
6:14 AM -5.8 °F -16.7 °F -9.4 °F 84% 30.48 in 10.0 mi NNE 4.6 mph - N/A   Overcast
6:35 AM -5.8 °F - -9.4 °F 84% 30.49 in 10.0 mi Calm Calm - N/A   Overcast
6:55 AM -5.8 °F - -9.4 °F 84% 30.50 in 10.0 mi Calm Calm - N/A   Overcast
7:14 AM -11.2 °F - -14.8 °F 84% 30.52 in 10.0 mi Calm Calm - N/A Snow Light Snow
7:35 AM -11.2 °F - -14.8 °F 84% 30.52 in 5.0 mi Calm Calm - N/A Snow Light Snow
7:55 AM -14.8 °F - -20.2 °F 77% 30.53 in 10.0 mi Calm Calm - N/A Snow Light Snow
8:14 AM -16.6 °F - -20.2 °F 84% 30.53 in 4.0 mi Calm Calm - N/A Snow Light Snow
8:35 AM -16.6 °F - -20.2 °F 84% 30.54 in 2.5 mi Calm Calm - N/A Snow Light Snow
8:54 AM -14.8 °F - -18.4 °F 84% 30.54 in 1.0 mi Calm Calm - N/A Snow Light Snow
9:14 AM -14.8 °F - -18.4 °F 84% 30.55 in 2.5 mi Calm Calm - N/A Snow Light Snow
9:35 AM -11.2 °F - -16.6 °F 77% 30.56 in 2.0 mi Calm Calm - N/A Snow Light Snow
9:54 AM -9.4 °F - -14.8 °F 77% 30.56 in 2.5 mi Calm Calm - N/A Snow Light Snow
10:15 AM -2.2 °F - -7.6 °F 78% 30.56 in 10.0 mi Calm Calm - N/A Snow Light Snow
10:34 AM -0.4 °F - -4.0 °F 85% 30.57 in 10.0 mi Calm Calm - N/A   Scattered Clouds
10:54 AM 1.4 °F - -2.2 °F 85% 30.57 in 10.0 mi Calm Calm - N/A   Scattered Clouds
11:15 AM 1.4 °F - -2.2 °F 85% 30.56 in 10.0 mi Calm Calm - N/A   Mostly Cloudy
11:34 AM 3.2 °F - -2.2 °F 78% 30.56 in 10.0 mi Calm Calm - N/A   Overcast
11:55 AM 3.2 °F - -2.2 °F 78% 30.56 in 4.0 mi Calm Calm - N/A Snow Light Snow
12:15 PM 3.2 °F - -2.2 °F 78% 30.55 in 5.0 mi Calm Calm - N/A Snow Light Snow
12:34 PM 6.8 °F - -0.4 °F 72% 30.55 in 10.0 mi Calm Calm - N/A   Unknown
1:15 PM 8.6 °F 2.0 °F -0.4 °F 67% 30.54 in 10.0 mi SW 3.5 mph - N/A   Scattered Clouds
1:34 PM 8.6 °F - 1.4 °F 73% 30.53 in 10.0 mi Calm Calm - N/A   Unknown
1:55 PM 8.6 °F - 1.4 °F 73% 30.53 in 10.0 mi Calm Calm - N/A   Unknown
2:14 PM 8.6 °F 0.1 °F 1.4 °F 73% 30.52 in 10.0 mi WSW 4.6 mph - N/A   Unknown
2:34 PM 8.6 °F -2.6 °F 1.4 °F 73% 30.52 in 10.0 mi SW 6.9 mph - N/A   Unknown
2:55 PM 10.4 °F 4.0 °F 1.4 °F 67% 30.52 in 10.0 mi WSW 3.5 mph - N/A   Mostly Cloudy
3:14 PM 10.4 °F 0.8 °F 1.4 °F 67% 30.51 in 10.0 mi West 5.8 mph - N/A   Mostly Cloudy
3:34 PM 10.4 °F 2.2 °F 1.4 °F 67% 30.52 in 10.0 mi SW 4.6 mph - N/A   Scattered Clouds
3:55 PM 10.4 °F 0.8 °F 1.4 °F 67% 30.52 in 10.0 mi West 5.8 mph - N/A   Scattered Clouds
4:14 PM 10.4 °F 2.2 °F 3.2 °F 73% 30.52 in 10.0 mi WSW 4.6 mph - N/A   Mostly Cloudy
4:35 PM 10.4 °F 2.2 °F 3.2 °F 73% 30.52 in 10.0 mi SSW 4.6 mph - N/A   Overcast
4:55 PM 8.6 °F -2.6 °F 3.2 °F 79% 30.52 in 10.0 mi SW 6.9 mph - N/A   Scattered Clouds
5:14 PM 6.8 °F -3.5 °F 1.4 °F 79% 30.50 in 10.0 mi SW 5.8 mph - N/A   Scattered Clouds
5:35 PM 8.6 °F -1.3 °F 3.2 °F 79% 30.50 in 10.0 mi SW 5.8 mph - N/A   Mostly Cloudy
5:55 PM 8.6 °F -1.3 °F 3.2 °F 79% 30.50 in 10.0 mi SW 5.8 mph - N/A   Overcast
6:14 PM 8.6 °F -1.3 °F 5.0 °F 85% 30.50 in 7.0 mi SW 5.8 mph - N/A Snow Light Snow
6:35 PM 8.6 °F -1.3 °F 5.0 °F 85% 30.49 in 7.0 mi SW 5.8 mph - N/A Snow Light Snow
6:54 PM 6.8 °F -3.5 °F 3.2 °F 85% 30.48 in 10.0 mi SW 5.8 mph - N/A   Mostly Cloudy
7:14 PM 6.8 °F -3.5 °F 3.2 °F 85% 30.48 in 10.0 mi SW 5.8 mph - N/A   Scattered Clouds
7:35 PM 5.0 °F -5.6 °F 1.4 °F 85% 30.48 in 10.0 mi SW 5.8 mph - N/A   Clear
7:54 PM 3.2 °F -6.2 °F -0.4 °F 85% 30.47 in 10.0 mi SW 4.6 mph - N/A   Clear
8:14 PM 3.2 °F -9.1 °F 1.4 °F 92% 30.46 in 10.0 mi SW 6.9 mph - N/A   Clear
8:35 PM 5.0 °F -4.1 °F 1.4 °F 85% 30.46 in 10.0 mi SW 4.6 mph - N/A   Clear
8:54 PM 3.2 °F - 1.4 °F 92% 30.44 in 10.0 mi Calm Calm - N/A   Clear
9:15 PM 5.0 °F - 1.4 °F 85% 30.43 in 10.0 mi Calm Calm - N/A   Clear
9:35 PM 5.0 °F - 1.4 °F 85% 30.43 in 10.0 mi Calm Calm - N/A   Clear
9:54 PM 3.2 °F - 1.4 °F 92% 30.42 in 10.0 mi Calm Calm - N/A   Clear
10:15 PM 3.2 °F -4.2 °F 1.4 °F 92% 30.42 in 10.0 mi SSW 3.5 mph - N/A   Clear
10:35 PM 5.0 °F - 1.4 °F 85% 30.42 in 10.0 mi Calm Calm - N/A   Clear
10:54 PM 3.2 °F - 1.4 °F 92% 30.41 in 10.0 mi Calm Calm - N/A   Scattered Clouds
11:15 PM 3.2 °F - 1.4 °F 92% 30.39 in 10.0 mi Calm Calm - N/A   Clear
11:34 PM 5.0 °F - 1.4 °F 85% 30.39 in 10.0 mi Calm Calm - N/A   Scattered Clouds
11:54 PM 3.2 °F - 1.4 °F 92% 30.39 in 10.0 mi Calm Calm - N/A   Scattered Clouds